Date,TemperatureHighF,TemperatureAvgF,TemperatureLowF,DewpointHighF,DewpointAvgF,DewpointLowF,HumidityHigh,HumidityAvg,HumidityLow,PressureMaxIn,PressureMinIn,WindSpeedMaxMPH,WindSpeedAvgMPH,GustSpeedMaxMPH,PrecipitationSumIn
2013-1-1,47.2,45.6,43.3,45.0,36.2,24.8,100,72,42,30.08,29.90,17,1,17,0.21
2013-1-2,44.2,38.5,37.0,44.2,34.5,28.8,100,86,70,30.21,29.97,10,1,13,0.26
2013-1-3,37.5,35.5,31.2,28.7,23.5,17.5,81,62,48,30.25,30.18,8,0,10,0.00
2013-1-4,44.7,37.0,29.9,29.5,25.9,20.8,92,67,41,30.26,30.15,17,1,17,0.00
2013-1-5,45.4,39.0,32.7,32.9,26.0,20.3,74,60,45,30.39,30.21,10,1,13,0.00
2013-1-6,48.8,43.4,39.6,38.0,35.9,32.2,87,75,59,30.27,30.06,11,1,11,0.02
2013-1-7,47.0,41.3,34.0,37.5,29.8,23.0,87,65,40,30.46,30.14,15,1,17,0.00
2013-1-8,55.9,42.1,30.0,42.9,36.0,28.0,100,80,52,30.48,30.39,4,0,4,0.00
2013-1-9,66.6,57.6,39.6,51.6,47.9,39.6,100,72,49,30.43,30.30,16,1,16,0.00
2013-1-10,55.7,48.4,39.6,49.6,35.3,24.4,95,63,38,30.58,30.38,15,1,16,0.00
2013-1-11,60.0,50.3,38.1,60.0,48.2,34.5,100,93,78,30.51,30.12,11,1,13,0.00
2013-1-12,57.9,54.0,51.0,57.9,53.9,51.0,100,100,92,30.18,30.11,10,0,11,0.00
2013-1-13,65.6,56.1,47.9,61.4,55.1,47.9,100,97,81,30.16,30.07,11,1,15,0.00
2013-1-14,65.6,58.1,45.0,62.4,56.9,44.5,100,96,80,30.23,30.09,21,1,26,0.19
2013-1-15,47.3,44.5,42.9,47.3,44.5,42.9,100,100,98,30.28,30.09,21,2,22,0.19
2013-1-16,50.1,44.8,41.2,50.1,44.8,41.1,100,100,100,30.10,29.97,13,1,13,0.09
2013-1-17,46.9,42.5,32.8,46.9,42.3,32.8,100,99,92,30.11,29.98,24,4,24,0.96
2013-1-18,39.9,34.8,30.9,35.5,29.4,23.0,100,82,54,30.55,30.04,20,1,20,0.10
2013-1-19,54.0,40.9,29.0,33.0,27.3,18.6,83,61,28,30.51,30.13,15,2,17,0.00
2013-1-20,60.2,50.4,40.5,36.4,32.2,28.0,75,52,30,30.13,29.91,24,5,25,0.00
2013-1-21,55.9,46.4,34.3,36.2,29.2,19.9,69,52,34,30.09,29.82,17,2,24,0.00
2013-1-22,42.9,32.0,26.9,25.1,6.8,-6.3,53,35,20,30.26,29.91,18,3,21,0.00
2013-1-23,32.5,27.6,22.2,10.4,2.4,-5.0,54,34,21,30.37,30.10,13,1,15,0.00
2013-1-24,33.9,28.2,24.3,24.3,9.1,-3.4,78,46,28,30.53,29.96,23,4,25,0.00
2013-1-25,30.3,26.0,22.9,24.0,12.6,-1.1,91,60,35,30.53,30.09,13,1,13,0.00
2013-1-26,33.3,28.3,23.5,28.1,24.7,20.7,93,86,70,30.42,30.09,13,1,14,0.07
2013-1-27,35.0,32.0,27.8,28.6,19.4,13.9,89,60,44,30.60,30.42,11,1,14,0.03
2013-1-28,51.9,38.3,30.2,47.0,31.4,20.2,86,76,64,30.53,30.15,23,3,24,0.05
2013-1-29,69.4,57.2,48.1,53.9,50.2,45.8,100,79,56,30.17,30.08,20,2,24,0.00
2013-1-30,73.4,64.8,57.1,62.6,59.7,53.0,100,84,64,30.10,29.49,44,9,44,0.00
2013-1-31,67.4,50.4,38.2,64.3,31.9,12.5,100,53,25,30.00,29.33,44,10,53,0.50
2013-2-1,41.5,35.0,28.1,27.0,11.2,-3.1,62,38,19,30.37,29.84,29,6,29,0.00
2013-2-2,40.2,32.0,24.0,18.2,6.6,-0.7,48,35,20,30.41,30.02,15,1,15,0.00
2013-2-3,42.9,37.9,34.8,33.9,27.3,18.3,92,66,46,30.02,29.83,16,2,17,0.01
2013-2-4,42.2,35.6,30.5,26.0,19.6,14.9,61,52,40,30.14,29.94,16,3,18,0.00
2013-2-5,55.9,46.8,38.6,33.8,30.9,25.1,67,55,38,29.99,29.86,18,3,20,0.00
2013-2-6,48.4,43.4,37.8,36.5,33.2,29.8,88,68,53,30.33,29.93,16,1,16,0.00
2013-2-7,47.0,42.8,37.8,43.4,35.3,25.9,98,75,60,30.41,30.11,15,2,18,0.02
2013-2-8,49.4,44.5,42.1,45.8,41.4,26.2,100,90,52,30.11,29.66,31,7,31,1.58
2013-2-9,44.8,39.4,34.5,27.6,21.3,13.7,59,48,31,30.37,29.91,26,6,26,0.00
2013-2-10,48.6,39.2,31.1,36.8,22.8,6.6,81,54,28,30.50,30.30,11,1,14,0.00
2013-2-11,61.7,54.6,42.2,60.8,52.3,33.3,100,92,66,30.30,29.83,24,6,26,0.07
2013-2-12,59.4,54.4,48.9,54.6,33.6,23.9,84,47,28,30.03,29.84,22,2,23,0.00
2013-2-13,50.7,47.8,43.8,48.4,43.0,33.5,100,85,52,29.96,29.59,14,0,15,0.08
2013-2-14,48.2,42.2,37.5,43.6,34.6,30.1,100,75,53,30.10,29.75,17,1,17,0.01
2013-2-15,58.6,46.3,37.6,39.8,35.7,26.2,100,70,29,30.09,29.94,13,1,13,0.00
2013-2-16,45.7,38.2,32.5,37.8,34.3,29.1,100,87,65,29.98,29.77,20,2,22,0.27
2013-2-17,33.4,30.8,28.1,30.4,11.1,1.2,89,45,26,30.23,29.78,24,6,24,0.00
2013-2-18,44.4,34.3,25.1,23.5,9.5,0.0,58,37,18,30.42,30.23,18,2,20,0.00
2013-2-19,58.9,47.4,35.9,52.5,39.9,23.0,99,76,58,30.28,29.81,28,6,28,0.05
2013-2-20,46.9,41.8,34.6,39.0,18.2,8.6,78,41,22,30.13,29.88,21,3,22,0.00
2013-2-21,41.2,35.1,27.8,22.2,16.3,11.3,60,46,33,30.29,30.12,17,2,20,0.00
2013-2-22,43.1,37.8,34.3,41.9,27.2,18.3,100,67,50,30.36,30.16,15,1,15,0.14
2013-2-23,44.5,42.7,41.3,44.5,42.5,41.0,100,99,99,30.16,29.80,15,1,15,0.71
2013-2-24,51.8,44.9,38.2,45.2,40.1,22.2,99,85,51,30.08,29.76,24,2,25,0.04
2013-2-25,40.5,36.9,33.6,27.5,22.6,16.4,76,56,42,30.24,30.08,17,2,20,0.00
2013-2-26,61.1,47.2,33.0,60.8,44.8,26.6,99,91,75,30.20,29.55,21,2,26,1.16
2013-2-27,61.1,52.0,45.7,60.8,43.7,33.2,99,76,41,29.72,29.56,17,2,20,0.00
2013-2-28,48.8,44.4,39.8,39.3,32.9,24.1,86,65,42,29.77,29.65,17,2,17,0.00
2013-3-1,46.4,41.6,36.3,29.0,26.5,21.3,69,55,40,29.88,29.77,15,3,17,0.00
2013-3-2,41.1,38.1,35.6,25.0,22.1,18.7,60,52,45,29.89,29.82,14,2,15,0.00
2013-3-3,41.1,36.2,31.5,21.4,17.5,14.2,62,47,36,29.92,29.80,18,3,18,0.00
2013-3-4,44.4,37.2,30.3,20.3,14.3,7.5,51,39,22,30.05,29.91,18,4,18,0.00
2013-3-5,47.6,38.7,29.9,40.8,24.8,12.4,99,61,27,30.10,29.72,16,1,18,0.19
2013-3-6,47.6,41.1,36.9,47.3,38.9,31.7,99,92,74,29.86,29.30,33,8,35,0.62
2013-3-7,49.4,43.4,39.2,33.0,28.0,22.2,78,55,37,30.14,29.86,23,7,26,0.00
2013-3-8,47.2,42.2,36.9,32.2,26.1,18.6,65,53,40,30.20,30.08,24,6,29,0.00
2013-3-9,54.1,44.5,37.6,31.5,25.0,17.7,70,48,27,30.31,30.19,17,2,18,0.00
2013-3-10,56.2,43.5,32.1,41.9,32.3,13.0,95,68,20,30.34,30.28,9,1,11,0.00
2013-3-11,68.3,53.9,40.6,50.2,45.7,40.3,99,77,46,30.29,30.03,20,2,20,0.00
2013-3-12,66.9,59.2,48.8,63.0,54.9,41.9,99,86,72,30.03,29.74,24,4,30,0.37
2013-3-13,55.3,47.4,40.9,43.6,28.1,18.3,82,48,25,30.04,29.91,15,2,20,0.00
2013-3-14,49.2,41.6,34.5,26.7,15.3,8.1,52,35,21,30.17,30.04,22,3,26,0.00
2013-3-15,57.4,46.9,32.4,31.8,21.1,10.5,64,38,19,30.14,29.86,22,2,25,0.00
2013-3-16,70.8,56.5,48.1,54.1,43.4,29.2,99,64,40,29.89,29.62,26,1,28,0.22
2013-3-17,53.1,41.5,38.3,52.8,38.1,31.7,99,88,74,30.26,29.83,20,2,21,0.00
2013-3-18,46.9,41.7,37.0,46.6,41.0,31.6,99,97,77,30.26,29.89,15,2,18,0.04
2013-3-19,61.4,49.7,41.5,46.1,36.9,9.1,99,71,17,29.95,29.77,14,2,21,0.04
2013-3-20,54.1,47.9,41.3,29.3,13.2,2.7,57,26,14,30.08,29.81,18,2,18,0.00
2013-3-21,43.1,38.2,33.3,30.9,23.5,4.0,79,56,29,29.92,29.68,23,4,28,0.00
2013-3-22,50.0,39.1,29.1,16.7,10.0,3.5,49,31,17,30.03,29.92,20,3,20,0.00
2013-3-23,54.9,43.0,33.0,34.0,22.4,12.9,81,47,19,30.05,29.91,13,1,15,0.00
2013-3-24,42.1,38.9,33.0,39.2,34.4,27.5,99,85,58,29.98,29.59,22,3,23,0.44
2013-3-25,42.9,39.2,35.3,40.6,34.5,29.6,99,84,62,29.73,29.45,23,4,24,0.12
2013-3-26,48.8,42.4,34.3,33.0,28.2,25.0,79,58,42,30.01,29.73,18,2,18,0.00
2013-3-27,50.7,44.0,36.9,29.3,25.2,18.2,69,49,29,30.14,30.01,17,2,20,0.00
2013-3-28,52.1,44.3,36.3,29.1,24.6,19.9,63,47,29,30.23,30.11,21,3,23,0.00
2013-3-29,55.2,46.5,38.3,32.3,27.5,21.1,69,49,28,30.29,30.18,17,1,20,0.00
2013-3-30,60.5,50.5,40.5,38.9,30.3,18.8,83,50,21,30.23,30.13,13,0,13,0.00
2013-3-31,62.4,54.4,47.3,55.3,45.6,29.2,99,73,47,30.16,29.79,16,1,17,0.28
2013-4-1,70.3,59.8,50.3,54.8,44.8,30.3,98,64,26,29.97,29.75,20,2,21,0.01
2013-4-2,55.2,48.4,42.3,31.9,21.5,11.8,64,36,18,30.14,29.97,15,1,17,0.00
2013-4-3,53.7,46.6,42.1,35.2,20.7,9.6,75,38,18,30.37,30.13,13,1,15,0.00
2013-4-4,50.0,43.3,38.9,41.9,25.3,14.8,99,52,33,30.41,29.99,15,1,15,0.42
2013-4-5,58.5,48.5,42.3,44.9,40.0,27.8,99,76,33,30.00,29.79,20,2,24,0.30
2013-4-6,50.0,46.7,41.2,39.4,30.5,22.3,75,54,38,30.34,30.00,20,2,20,0.00
2013-4-7,70.5,55.2,39.5,49.0,39.1,32.2,96,60,26,30.32,30.11,22,3,22,0.00
2013-4-8,79.3,66.2,53.5,57.7,51.8,44.7,93,63,35,30.15,30.05,20,5,22,0.00
2013-4-9,84.7,72.4,62.1,59.7,55.3,49.3,86,58,31,30.15,30.04,20,3,21,0.00
2013-4-10,88.9,76.2,65.1,60.5,57.2,53.0,75,54,30,30.07,29.91,20,3,21,0.00
2013-4-11,84.3,73.9,63.5,64.1,58.5,53.2,82,60,35,29.98,29.83,22,4,23,0.00
2013-4-12,78.2,70.6,67.4,72.4,67.1,62.5,99,89,68,29.84,29.62,25,6,31,0.26
2013-4-13,68.9,59.4,52.9,68.6,45.8,36.2,99,63,38,29.99,29.68,17,2,23,0.00
2013-4-14,71.5,60.9,51.0,51.8,40.9,28.9,95,54,23,30.16,29.99,15,1,20,0.00
2013-4-15,66.3,61.4,58.6,55.0,50.4,40.1,80,68,49,30.27,30.12,14,1,20,0.00
2013-4-16,75.3,65.4,57.1,58.2,55.3,52.1,92,71,52,30.32,30.24,17,1,18,0.00
2013-4-17,84.1,70.1,59.5,63.3,59.7,56.6,99,72,43,30.25,30.13,14,1,18,0.00
2013-4-18,80.4,70.8,62.5,62.9,59.1,54.4,99,69,42,30.26,30.10,17,1,20,0.00
2013-4-19,83.9,72.3,64.6,67.8,64.8,60.7,99,79,50,30.10,29.78,34,6,37,0.38
2013-4-20,65.0,56.1,50.1,64.7,44.9,21.8,99,70,27,30.29,29.81,20,1,22,0.53
2013-4-21,53.2,49.1,43.9,45.3,33.4,22.0,92,56,33,30.56,30.29,22,2,25,0.00
2013-4-22,52.9,48.2,43.5,49.8,43.4,29.0,99,84,57,30.53,30.29,24,4,28,0.00
2013-4-23,55.5,50.8,46.9,50.1,47.7,43.8,99,90,74,30.29,30.15,18,3,22,0.00
2013-4-24,75.0,60.4,46.3,59.0,51.5,44.7,99,76,45,30.17,29.95,23,4,25,0.00
2013-4-25,64.3,57.5,49.5,58.7,42.1,20.1,87,59,23,30.32,30.01,22,2,22,0.00
2013-4-26,65.8,55.9,44.5,47.1,37.8,28.0,96,55,27,30.44,30.30,11,0,13,0.00
2013-4-27,67.9,58.7,48.1,46.8,36.9,28.7,82,47,26,30.42,30.32,10,0,13,0.00
2013-4-28,68.1,58.2,46.9,58.2,43.9,35.6,99,61,39,30.32,30.15,13,0,15,0.02
2013-4-29,65.3,60.2,57.3,64.8,59.9,57.0,99,99,99,30.16,30.01,11,0,13,1.38
2013-4-30,65.4,59.2,56.6,59.2,57.7,56.0,99,95,75,30.18,30.04,17,1,17,0.01
2013-5-1,59.1,56.4,54.1,56.8,54.3,51.7,99,93,80,30.37,30.18,24,4,24,0.10
2013-5-2,62.4,56.9,53.5,53.6,50.7,46.4,97,80,64,30.40,30.30,18,2,21,0.00
2013-5-3,61.6,55.3,51.0,54.0,48.2,37.2,98,78,41,30.34,30.25,24,3,24,0.00
2013-5-4,58.6,53.4,50.6,52.1,48.9,45.1,99,85,72,30.27,30.16,20,3,24,0.00
2013-5-5,56.8,53.4,50.7,51.8,48.8,46.3,94,84,74,30.17,30.11,20,3,23,0.00
2013-5-6,73.6,63.0,53.7,61.4,57.1,51.7,99,83,56,30.11,29.98,17,2,20,0.02
2013-5-7,75.8,64.4,57.6,64.4,59.1,51.4,99,84,53,29.99,29.86,17,1,17,0.54
2013-5-8,75.1,63.1,55.3,61.8,54.9,47.9,99,77,39,30.03,29.95,17,1,17,0.06
2013-5-9,79.3,67.5,56.8,61.0,55.6,47.6,99,70,36,30.06,29.96,16,0,16,0.01
2013-5-10,87.4,74.8,63.3,60.5,56.1,49.8,77,55,30,30.06,29.96,18,2,22,0.00
2013-5-11,83.7,74.9,68.4,68.3,62.2,57.0,82,66,42,29.98,29.78,24,4,24,0.01
2013-5-12,70.5,64.9,58.0,67.7,56.1,44.3,99,76,47,30.03,29.76,16,0,16,0.26
2013-5-13,63.5,58.9,55.0,45.7,30.6,22.5,63,35,25,30.15,30.03,18,0,18,0.00
2013-5-14,66.1,56.2,47.9,45.8,34.3,21.7,71,45,24,30.24,30.11,10,0,10,0.00
2013-5-15,86.2,72.2,58.0,59.2,52.0,42.9,67,50,37,30.12,29.83,22,5,26,0.00
2013-5-16,91.1,79.3,70.3,61.5,56.9,48.6,71,49,25,29.93,29.83,22,2,22,0.00
2013-5-17,79.9,72.9,65.0,62.0,51.9,37.0,81,51,23,30.16,29.93,13,1,14,0.00
2013-5-18,73.2,66.5,57.9,67.8,61.6,50.6,99,85,59,30.23,30.14,16,1,17,2.49
2013-5-19,78.9,72.2,67.1,70.0,67.0,60.2,99,85,53,30.20,30.11,14,0,14,0.00
2013-5-20,82.2,71.9,68.8,72.9,68.1,64.4,99,88,57,30.16,30.06,23,2,24,0.17
2013-5-21,83.0,72.9,68.1,70.3,68.6,66.5,99,87,59,30.07,29.95,14,2,17,0.02
2013-5-22,86.0,75.9,67.9,70.2,67.0,63.0,99,76,48,30.04,29.93,24,5,24,0.00
2013-5-23,76.9,71.8,68.6,73.3,69.1,61.9,99,91,77,30.01,29.82,21,2,24,0.76
2013-5-24,71.0,62.8,53.1,69.7,56.3,35.0,99,81,49,30.13,29.77,18,1,22,0.46
2013-5-25,66.6,56.9,47.5,42.2,34.6,28.2,59,44,27,30.20,30.12,20,2,22,0.00
2013-5-26,72.7,61.9,52.5,50.2,38.1,27.9,72,44,25,30.25,30.16,15,0,15,0.00
2013-5-27,79.3,67.7,53.1,54.7,47.2,40.2,95,53,26,30.29,30.19,17,1,18,0.00
2013-5-28,85.7,74.5,64.0,63.4,59.2,54.3,82,61,40,30.26,30.14,22,4,23,0.00
2013-5-29,89.1,77.8,66.8,64.9,63.1,58.2,93,63,36,30.22,30.16,20,4,20,0.00
2013-5-30,89.3,79.0,67.4,69.2,63.1,56.3,91,61,36,30.27,30.17,18,2,18,0.00
2013-5-31,90.8,80.1,70.3,71.3,66.3,55.1,99,67,33,30.24,30.10,22,2,22,0.00
2013-6-1,91.1,80.6,70.5,70.2,67.4,62.1,97,67,40,30.15,30.02,18,3,22,0.00
2013-6-2,89.5,79.9,69.9,69.4,64.3,58.7,97,61,39,30.05,29.92,23,4,24,0.00
2013-6-3,78.9,74.5,72.0,74.9,71.3,65.0,99,90,70,29.95,29.84,23,2,24,0.13
2013-6-4,74.1,70.6,64.5,71.5,59.9,48.0,99,71,45,30.15,29.93,17,1,20,0.00
2013-6-5,78.9,68.1,58.6,61.8,52.1,39.6,99,61,26,30.18,30.11,11,0,13,0.00
2013-6-6,80.4,71.2,62.4,70.2,62.8,56.8,99,77,50,30.11,29.89,17,1,20,0.00
2013-6-7,83.7,74.2,69.8,78.8,72.1,69.5,99,94,67,29.89,29.48,28,3,34,1.71
2013-6-8,83.1,74.1,69.4,72.1,68.6,64.8,99,84,66,30.11,29.78,20,1,22,0.00
2013-6-9,85.5,76.2,67.6,75.8,68.9,65.5,98,80,54,30.19,30.11,13,0,17,0.00
2013-6-10,85.1,75.6,71.0,77.5,72.5,69.8,99,91,63,30.13,29.92,22,2,26,1.65
2013-6-11,84.9,76.7,70.1,71.5,67.5,62.7,99,76,49,29.94,29.83,20,3,24,0.00
2013-6-12,92.6,81.4,70.1,72.2,65.9,59.7,87,62,37,29.94,29.84,17,1,17,0.00
2013-6-13,97.0,81.6,69.8,73.8,70.2,64.2,99,72,35,29.85,29.52,31,3,35,0.10
2013-6-14,72.2,68.5,65.0,67.7,57.2,49.1,92,68,47,29.99,29.64,23,1,24,0.00
2013-6-15,85.1,73.7,63.0,65.2,57.6,51.1,78,59,34,30.10,29.99,11,0,11,0.00
2013-6-16,88.7,78.5,67.4,65.0,61.1,55.4,75,56,39,30.09,29.97,25,4,26,0.00
2013-6-17,89.3,76.4,71.5,73.3,67.5,63.6,99,75,49,30.04,29.95,18,2,18,0.16
2013-6-18,83.0,74.7,67.9,73.8,71.7,67.6,99,91,69,29.97,29.77,15,1,17,0.80
2013-6-19,74.6,69.1,65.3,67.8,63.7,59.9,99,84,62,30.16,29.82,14,1,17,0.00
2013-6-20,76.0,68.4,61.3,63.5,57.6,42.0,99,71,34,30.27,30.16,15,1,17,0.00
2013-6-21,78.9,68.9,63.8,70.3,65.6,59.9,99,90,69,30.29,30.24,15,1,15,0.03
2013-6-22,83.9,72.8,63.7,71.9,67.4,63.2,99,84,64,30.25,30.18,15,0,17,0.00
2013-6-23,88.9,78.6,72.3,74.1,71.9,68.7,99,82,54,30.22,30.13,16,2,18,0.01
2013-6-24,90.4,80.2,73.0,74.1,72.2,69.8,99,78,53,30.20,30.08,17,2,17,0.00
2013-6-25,93.3,82.7,72.7,72.9,71.0,67.2,99,70,46,30.11,29.96,20,2,23,0.00
2013-6-26,93.9,81.3,71.3,72.3,69.9,67.0,98,71,45,30.00,29.87,21,3,22,0.08
2013-6-27,92.2,79.3,70.3,73.9,70.9,67.4,99,78,47,29.90,29.71,24,3,26,0.00
2013-6-28,93.9,81.7,74.3,75.5,71.4,65.8,99,74,42,29.73,29.55,22,4,22,0.03
2013-6-29,86.6,77.3,70.3,74.7,71.0,66.6,99,82,57,29.76,29.58,22,3,26,0.14
2013-6-30,84.1,78.5,74.6,76.1,73.6,70.8,99,85,67,29.91,29.76,20,2,20,0.00
2013-7-1,82.6,77.5,75.0,77.0,74.9,72.0,99,92,74,30.07,29.90,21,3,22,0.22
2013-7-2,88.0,76.1,72.5,75.6,73.3,70.9,99,92,60,30.24,30.06,20,2,22,0.69
2013-7-3,87.0,78.1,72.7,77.2,74.3,71.1,99,89,61,30.29,30.21,17,1,17,0.58
2013-7-4,91.1,81.6,74.4,77.3,71.4,59.0,99,75,36,30.32,30.23,15,2,16,0.00
2013-7-5,93.0,82.9,74.3,76.7,71.7,67.2,99,72,45,30.30,30.18,17,2,21,0.00
2013-7-6,92.4,83.0,74.4,73.5,70.1,64.8,94,68,42,30.26,30.14,14,1,18,0.00
2013-7-7,91.7,83.2,73.9,72.3,69.8,65.6,91,66,44,30.19,30.06,18,2,20,0.00
2013-7-8,87.8,80.7,75.7,74.4,72.1,70.2,87,76,59,30.16,30.09,17,2,18,0.00
2013-7-9,90.8,81.5,74.6,76.1,72.6,67.2,98,76,51,30.17,30.07,18,2,20,0.00
2013-7-10,91.7,81.6,75.8,76.3,73.6,70.5,99,78,54,30.11,29.96,22,3,29,0.04
2013-7-11,88.3,76.8,71.8,75.9,72.5,70.2,99,88,58,29.99,29.91,20,2,21,1.31
2013-7-12,80.1,74.6,72.0,75.2,71.7,68.2,99,91,71,30.04,29.89,8,0,9,0.73
2013-7-13,87.6,78.6,71.1,77.7,73.1,70.5,99,85,60,30.27,30.04,18,1,22,0.12
2013-7-14,88.7,80.7,75.1,77.2,73.4,69.9,99,80,57,30.34,30.26,11,0,11,0.00
2013-7-15,92.6,82.0,73.2,77.5,71.0,64.0,99,73,40,30.33,30.23,9,0,10,0.00
2013-7-16,93.5,83.8,76.7,77.0,72.2,67.4,83,69,53,30.24,30.15,10,0,10,0.00
2013-7-17,92.6,84.4,77.5,78.3,71.1,63.2,99,67,41,30.21,30.12,11,0,13,0.00
2013-7-18,93.7,84.1,76.2,74.3,71.5,67.8,86,67,45,30.15,30.05,10,0,11,0.00
2013-7-19,93.9,85.3,76.9,75.9,73.3,70.2,93,69,48,30.08,29.96,22,3,22,0.00
2013-7-20,92.4,84.3,76.4,75.0,73.0,70.8,92,70,52,30.01,29.90,22,4,22,0.00
2013-7-21,93.3,82.8,75.1,76.7,72.4,70.3,92,72,51,29.98,29.88,20,2,21,0.02
2013-7-22,90.6,79.8,74.3,78.6,75.7,71.7,99,88,55,29.95,29.81,17,0,25,1.81
2013-7-23,90.6,81.2,75.0,76.4,73.5,69.4,99,79,51,29.82,29.68,16,2,20,0.00
2013-7-24,90.8,81.5,75.3,75.2,71.8,63.5,93,74,43,29.84,29.70,15,1,17,0.00
2013-7-25,76.7,72.7,69.1,74.1,69.6,66.2,99,90,75,30.02,29.82,20,2,30,1.93
2013-7-26,82.0,74.0,67.1,69.6,64.1,56.4,99,74,43,30.10,30.00,9,0,10,0.00
2013-7-27,83.9,76.1,68.1,66.9,62.8,56.9,88,65,44,30.09,29.97,10,0,14,0.00
2013-7-28,88.9,78.1,72.2,75.8,71.2,66.7,99,81,52,30.01,29.93,15,1,16,0.05
2013-7-29,82.8,77.2,73.6,75.0,69.0,62.1,99,78,54,30.17,30.00,13,1,17,0.00
2013-7-30,84.5,76.7,68.3,69.5,61.5,54.9,98,62,39,30.23,30.14,13,0,13,0.00
2013-7-31,84.7,77.0,72.0,69.7,64.6,57.0,88,67,42,30.17,30.05,15,0,15,0.00
2013-8-1,81.8,75.2,67.1,73.9,70.5,66.1,99,86,71,30.05,29.85,16,2,18,1.08
2013-8-2,87.2,77.6,68.3,74.4,69.6,65.1,99,79,52,30.01,29.88,11,0,11,0.00
2013-8-3,88.5,77.1,70.3,75.4,72.8,67.5,99,88,57,30.01,29.91,18,1,20,1.41
2013-8-4,81.2,75.1,70.8,73.1,64.2,52.1,99,72,38,30.03,29.87,14,1,16,0.00
2013-8-5,83.0,74.6,65.3,64.1,58.7,47.0,87,60,32,30.10,30.02,8,0,8,0.00
2013-8-6,72.3,69.3,65.9,68.8,64.6,55.7,99,86,56,30.13,30.03,9,0,10,0.59
2013-8-7,87.6,77.4,69.1,72.4,69.6,65.9,99,79,49,30.12,30.06,14,1,17,0.00
2013-8-8,90.2,80.2,74.4,77.2,71.8,68.6,96,77,51,30.10,30.03,14,1,14,0.00
2013-8-9,93.0,84.1,76.0,77.2,74.7,71.7,99,75,52,30.04,29.94,21,3,23,0.00
2013-8-10,90.4,80.2,74.8,76.3,75.2,72.1,99,86,62,30.10,29.99,20,1,20,1.36
2013-8-11,86.0,77.8,74.1,76.9,74.3,70.6,99,90,70,30.12,30.02,11,0,15,1.22
2013-8-12,87.4,79.7,73.6,76.6,74.5,71.2,99,85,65,30.05,29.94,11,0,11,0.00
2013-8-13,90.6,82.6,76.4,78.3,74.7,68.9,99,79,56,29.94,29.76,16,1,18,0.00
2013-8-14,76.6,72.7,69.3,76.1,57.9,46.3,99,62,39,30.09,29.77,20,1,21,0.02
2013-8-15,75.5,70.2,65.1,59.3,55.1,51.2,71,59,50,30.16,30.08,15,1,15,0.00
2013-8-16,74.3,70.1,64.2,67.8,58.1,52.4,95,66,53,30.18,30.10,13,1,14,0.00
2013-8-17,73.9,71.9,69.3,72.7,69.8,64.6,99,93,75,30.22,30.14,15,2,17,0.48
2013-8-18,77.3,72.1,68.9,74.0,70.4,65.4,99,94,80,30.21,30.09,16,0,17,0.45
2013-8-19,74.8,71.2,67.4,70.3,67.0,63.9,95,87,74,30.20,30.10,10,0,10,0.00
2013-8-20,81.2,74.3,68.3,72.2,69.2,66.7,99,85,64,30.20,30.11,7,0,8,0.00
2013-8-21,87.8,77.4,70.6,73.6,71.5,68.9,99,83,60,30.24,30.12,10,0,13,0.00
2013-8-22,89.1,80.6,73.6,73.5,71.2,65.7,96,74,49,30.14,29.97,13,1,13,0.00
2013-8-23,84.3,75.7,66.1,72.4,69.1,59.4,99,81,58,30.08,29.94,18,1,20,0.26
2013-8-24,78.6,72.2,65.8,66.8,62.9,58.1,90,73,52,30.32,30.08,22,2,22,0.00
2013-8-25,76.7,69.8,62.5,60.5,57.3,52.3,86,66,46,30.40,30.30,14,1,15,0.00
2013-8-26,83.7,71.3,59.1,63.9,53.6,33.7,99,59,19,30.33,30.10,11,0,11,0.00
2013-8-27,90.2,77.7,65.9,69.5,62.8,54.2,75,61,40,30.10,29.92,13,1,13,0.00
2013-8-28,84.9,78.0,73.9,77.1,72.4,68.8,99,84,64,29.95,29.85,11,0,13,0.20
2013-8-29,78.9,74.8,71.8,75.0,71.0,65.1,99,89,72,30.02,29.80,22,2,22,0.20
2013-8-30,85.1,74.5,67.3,70.6,67.6,65.7,99,80,54,30.07,29.97,10,0,13,0.00
2013-8-31,89.7,79.0,69.9,73.2,69.3,61.7,99,75,40,29.99,29.87,17,2,20,0.00
2013-9-1,91.9,79.9,73.4,75.1,73.4,67.4,99,83,47,29.91,29.82,17,2,21,0.22
2013-9-2,88.5,78.9,71.7,75.1,72.4,70.4,99,82,57,29.86,29.79,13,1,14,0.04
2013-9-3,85.1,76.5,69.3,76.3,73.0,65.5,99,90,62,29.94,29.79,21,0,21,0.85
2013-9-4,83.0,74.4,67.8,70.3,64.9,58.4,99,74,51,30.09,29.94,9,0,11,0.00
2013-9-5,87.6,77.1,68.9,73.6,66.8,61.1,99,73,43,30.09,30.00,9,0,10,0.00
2013-9-6,77.3,73.2,65.8,69.2,59.5,52.7,86,63,49,30.18,30.06,18,2,20,0.00
2013-9-7,80.6,70.4,60.8,60.5,55.6,49.0,89,62,37,30.15,29.99,13,0,13,0.00
2013-9-8,86.2,74.8,64.3,69.1,62.1,54.2,82,66,35,30.00,29.89,13,1,15,0.00
2013-9-9,81.6,76.3,72.0,71.5,69.0,63.1,95,79,56,30.18,30.00,13,0,13,0.00
2013-9-10,89.5,79.1,70.6,73.4,68.9,65.3,99,74,48,30.25,30.15,14,1,14,0.00
2013-9-11,91.1,80.4,72.0,69.9,68.3,64.9,90,69,44,30.21,30.08,15,1,15,0.00
2013-9-12,90.8,80.8,72.5,71.9,68.5,65.1,89,68,43,30.09,29.78,18,2,18,0.00
2013-9-13,79.7,75.7,72.3,74.5,65.0,53.1,98,71,47,29.87,29.71,15,0,15,0.00
2013-9-14,72.2,67.2,62.4,55.7,52.3,44.2,74,60,42,30.16,29.88,14,1,15,0.00
2013-9-15,78.0,67.3,57.4,61.0,54.8,47.8,99,67,37,30.25,30.14,10,0,11,0.00
2013-9-16,82.6,71.2,65.9,70.5,63.6,57.9,99,78,51,30.19,30.06,16,1,20,0.00
2013-9-17,68.1,64.5,60.2,57.9,53.8,47.1,81,68,61,30.36,30.19,20,2,20,0.00
2013-9-18,71.1,63.8,57.3,54.6,51.7,49.2,86,66,46,30.32,30.21,14,1,16,0.00
2013-9-19,73.6,64.9,55.2,58.3,51.4,39.9,99,64,32,30.22,30.11,11,0,13,0.00
2013-9-20,77.6,67.7,59.5,60.7,55.5,53.2,97,66,46,30.11,30.01,13,0,14,0.00
2013-9-21,82.4,71.5,60.2,71.9,63.3,54.7,99,77,52,30.02,29.75,17,1,17,0.02
2013-9-22,72.2,68.3,64.3,70.8,61.9,51.8,99,82,55,29.89,29.74,16,2,17,0.48
2013-9-23,66.8,62.1,56.0,53.0,48.6,45.3,76,61,53,30.09,29.89,15,1,17,0.00
2013-9-24,70.3,61.7,52.3,56.2,50.3,46.7,97,68,48,30.10,29.97,11,0,13,0.00
2013-9-25,74.3,64.7,56.0,59.8,52.7,39.5,99,68,31,29.98,29.89,10,0,11,0.00
2013-9-26,73.4,67.0,61.3,62.0,57.1,53.2,97,71,52,30.05,29.89,18,1,18,0.00
2013-9-27,71.5,66.4,61.7,59.2,54.4,47.9,83,66,47,30.19,30.04,17,3,20,0.00
2013-9-28,69.8,65.6,62.5,59.8,56.7,53.0,85,73,62,30.24,30.17,20,3,21,0.00
2013-9-29,72.0,66.0,60.8,64.4,59.0,53.0,97,79,56,30.17,30.05,17,1,17,0.00
2013-9-30,70.8,64.0,57.0,59.9,54.2,45.0,99,73,43,30.08,30.01,15,1,15,0.00
2013-10-1,80.1,67.9,56.2,58.6,56.5,51.5,99,71,38,30.11,30.02,10,0,10,0.00
2013-10-2,82.2,71.7,61.9,62.0,58.8,53.6,95,66,38,30.11,30.04,11,0,11,0.00
2013-10-3,84.3,74.0,63.7,66.4,61.9,57.0,97,69,42,30.13,30.08,10,0,13,0.00
2013-10-4,87.0,75.6,67.4,68.7,64.0,57.0,99,70,39,30.12,30.04,11,1,13,0.00
2013-10-5,87.0,76.6,67.3,68.7,65.4,60.9,99,71,43,30.11,30.05,10,0,13,0.00
2013-10-6,86.8,76.1,68.4,72.0,66.2,58.6,99,74,41,30.09,29.99,14,1,18,0.00
2013-10-7,85.7,74.2,63.7,74.8,69.8,63.4,99,88,50,30.00,29.84,23,2,29,0.82
2013-10-8,64.6,62.7,60.0,63.7,53.0,44.8,99,71,53,30.20,30.00,24,4,30,0.01
2013-10-9,64.0,62.1,60.3,63.7,60.5,54.8,99,95,77,30.19,29.99,26,6,28,2.54
2013-10-10,68.4,66.0,64.0,68.1,65.7,63.5,99,99,99,29.99,29.85,28,4,31,0.87
2013-10-11,65.0,63.4,62.1,64.7,63.1,61.8,99,99,99,29.93,29.83,15,1,15,0.10
2013-10-12,70.8,67.1,64.3,70.3,66.6,63.9,100,99,90,30.07,29.90,11,1,13,0.13
2013-10-13,70.8,67.2,65.3,70.6,66.5,62.3,100,98,90,30.22,30.06,23,3,24,0.11
2013-10-14,68.8,65.4,61.1,64.0,60.7,56.6,94,85,70,30.25,30.19,21,4,21,0.00
2013-10-15,65.4,63.5,60.8,65.4,62.3,57.2,100,96,89,30.20,30.06,14,1,15,0.00
2013-10-16,70.6,66.5,64.2,65.4,62.9,59.3,100,89,70,30.06,29.96,13,1,13,0.00
2013-10-17,77.5,69.3,62.1,65.8,62.9,60.8,100,82,59,29.96,29.83,13,1,15,0.00
2013-10-18,70.1,65.1,58.9,65.2,53.6,43.1,88,68,48,30.05,29.85,15,1,15,0.00
2013-10-19,67.4,63.5,58.5,66.8,60.3,52.3,100,89,78,30.02,29.83,10,0,11,0.00
2013-10-20,65.3,57.1,47.9,65.3,44.8,33.8,100,66,39,30.14,29.87,14,1,17,0.00
2013-10-21,68.1,56.0,44.2,52.6,44.8,40.7,100,69,38,30.17,30.02,10,0,13,0.00
2013-10-22,65.3,59.6,54.6,58.1,52.6,45.8,93,78,67,30.02,29.82,8,0,8,0.00
2013-10-23,59.5,56.8,50.7,59.5,51.6,36.7,100,84,59,29.93,29.66,17,1,20,0.02
2013-10-24,56.2,50.2,44.1,40.6,34.2,24.6,81,56,32,30.15,29.93,15,1,20,0.00
2013-10-25,54.0,47.8,42.5,36.0,30.5,24.8,76,52,33,30.33,30.14,17,1,17,0.00
2013-10-26,60.8,49.4,39.3,45.4,34.9,26.6,100,61,28,30.33,30.05,20,2,20,0.00
2013-10-27,64.2,53.0,46.7,44.8,37.5,27.8,81,57,30,30.16,30.01,10,0,14,0.00
2013-10-28,65.6,56.6,49.8,50.4,48.3,43.1,91,75,53,30.26,30.15,10,1,15,0.00
2013-10-29,65.1,58.2,52.2,56.8,49.4,38.8,100,76,41,30.34,30.25,13,0,13,0.00
2013-10-30,71.3,62.5,54.1,58.5,54.7,50.0,100,78,56,30.33,30.18,14,1,14,0.00
2013-10-31,75.3,66.7,59.9,65.6,59.1,53.4,91,77,48,30.22,29.96,20,3,22,0.00
2013-11-1,74.4,69.9,66.8,68.3,65.2,62.2,100,86,69,29.96,29.68,30,6,38,0.51
2013-11-2,68.4,64.8,58.0,68.4,56.9,41.5,100,78,43,29.89,29.63,16,1,22,0.02
2013-11-3,59.5,54.6,49.8,42.4,36.8,22.0,66,51,33,30.37,29.89,18,2,18,0.00
2013-11-4,50.6,47.7,43.2,45.8,36.4,23.2,84,65,35,30.56,30.37,20,2,20,0.00
2013-11-5,61.9,55.8,50.6,51.6,48.7,45.4,90,78,60,30.54,30.44,14,1,17,0.00
2013-11-6,68.4,58.8,48.6,60.1,53.0,46.3,100,82,54,30.44,30.13,10,0,10,0.00
2013-11-7,65.9,60.1,50.6,63.0,55.3,36.5,100,85,54,30.13,29.88,15,1,17,0.64
2013-11-8,54.3,48.2,42.2,37.7,27.7,21.5,65,46,30,30.31,30.05,18,1,18,0.00
2013-11-9,57.9,48.1,38.8,38.9,33.2,24.5,87,58,29,30.37,30.14,14,1,17,0.00
2013-11-10,67.4,54.6,44.2,42.0,33.5,25.6,69,47,26,30.24,29.98,21,2,22,0.00
2013-11-11,56.2,49.4,44.1,41.1,32.6,24.9,81,53,43,30.33,30.12,16,1,18,0.00
2013-11-12,54.7,43.9,36.6,43.2,29.7,12.4,83,59,34,30.35,30.01,30,3,30,0.00
2013-11-13,41.8,37.4,33.0,23.7,17.1,10.2,65,44,32,30.46,30.35,22,2,22,0.00
2013-11-14,56.6,42.9,31.5,26.1,20.6,13.0,70,44,20,30.43,30.32,16,2,16,0.00
2013-11-15,61.9,51.0,37.0,47.6,32.9,22.4,67,51,28,30.35,30.24,16,1,16,0.00
2013-11-16,61.9,57.1,51.8,56.3,54.0,47.4,100,90,67,30.30,30.22,13,0,13,0.05
2013-11-17,68.9,59.9,52.3,66.1,57.9,52.3,100,94,72,30.23,29.90,22,1,24,0.00
2013-11-18,71.7,65.4,54.7,67.3,50.8,30.1,100,65,27,29.90,29.77,25,2,25,0.05
2013-11-19,55.0,48.4,44.5,36.3,28.2,23.6,59,46,31,30.31,29.90,20,2,21,0.00
2013-11-20,50.6,46.5,41.9,41.2,34.6,24.9,72,63,47,30.48,30.31,18,2,21,0.00
2013-11-21,60.5,52.4,47.6,52.2,48.2,41.2,100,86,70,30.49,30.39,8,0,10,0.00
2013-11-22,71.3,59.5,47.2,62.7,54.4,46.7,100,85,57,30.39,30.04,21,2,21,0.01
2013-11-23,62.7,52.7,42.8,62.7,41.0,17.1,100,67,36,30.12,30.01,17,2,20,0.03
2013-11-24,43.3,32.6,28.7,21.8,5.3,-4.7,52,32,20,30.53,30.11,23,6,26,0.00
2013-11-25,38.3,33.2,27.2,26.2,11.3,3.1,63,40,28,30.60,30.38,15,1,15,0.00
2013-11-26,66.0,50.2,37.8,65.8,44.6,25.6,100,82,62,30.40,29.59,30,2,38,0.48
2013-11-27,67.8,49.1,38.6,67.8,47.1,28.5,100,93,67,30.05,29.45,38,6,38,0.85
2013-11-28,39.6,35.2,31.2,29.4,17.4,8.7,70,49,29,30.50,30.05,21,3,22,0.00
2013-11-29,44.1,36.9,29.0,30.5,24.8,21.3,87,62,48,30.67,30.49,18,2,18,0.00
2013-11-30,46.0,41.4,37.6,39.3,34.0,22.8,89,75,55,30.66,30.37,14,2,15,0.00
2013-12-1,54.4,44.7,38.2,42.8,38.5,34.4,96,80,51,30.37,30.03,7,0,8,0.00
2013-12-2,55.9,44.2,34.6,48.2,39.7,29.3,100,86,39,30.03,29.85,8,0,9,0.00
2013-12-3,59.6,48.8,38.6,46.2,40.2,35.7,100,76,43,30.03,29.86,11,0,11,0.00
2013-12-4,61.8,55.5,48.5,58.6,51.3,38.0,100,87,59,30.12,30.03,11,0,11,0.05
2013-12-5,67.4,62.1,55.1,64.4,59.9,55.1,100,93,77,30.15,30.05,16,2,17,0.00
2013-12-6,77.9,68.1,51.0,65.7,61.3,49.8,100,80,59,30.06,29.97,26,5,33,0.00
2013-12-7,51.0,44.1,40.9,51.0,39.8,31.3,100,86,66,30.50,30.06,24,5,24,0.48
2013-12-8,43.8,39.9,37.5,43.8,36.5,26.8,100,89,60,30.50,30.25,21,4,23,0.36
2013-12-9,47.3,42.6,37.8,47.3,42.6,37.8,100,100,100,30.25,30.08,13,1,13,0.20
2013-12-10,47.0,41.6,36.2,47.0,40.6,31.0,100,96,83,30.29,29.93,17,2,22,0.98
2013-12-11,46.0,38.4,32.2,30.9,26.1,18.1,81,62,37,30.44,30.27,13,1,15,0.00
2013-12-12,38.2,35.5,30.4,29.7,23.5,13.9,77,62,41,30.40,30.24,20,2,20,0.00
2013-12-13,48.0,38.8,29.3,24.8,19.2,11.7,72,47,28,30.35,30.26,15,1,17,0.00
2013-12-14,60.1,47.6,37.5,60.1,39.4,24.4,100,75,52,30.33,29.68,21,1,22,0.97
2013-12-15,59.6,48.0,40.6,59.6,42.1,28.9,100,81,54,30.01,29.65,20,2,23,0.02
2013-12-16,47.3,41.1,36.2,36.8,30.8,27.1,81,67,51,30.20,30.01,13,1,14,0.00
2013-12-17,59.9,47.8,40.6,41.2,38.1,32.9,90,71,37,30.16,29.87,20,2,20,0.00
2013-12-18,45.5,41.1,37.5,40.2,30.3,20.7,96,68,39,30.28,29.95,16,2,17,0.00
2013-12-19,59.5,46.9,35.3,29.7,25.0,20.2,67,45,25,30.29,30.20,21,3,23,0.00
2013-12-20,67.1,56.3,45.4,57.3,46.6,28.8,88,71,47,30.24,30.12,24,3,28,0.00
2013-12-21,71.5,63.4,55.3,66.5,58.9,54.4,100,86,62,30.16,30.06,28,4,28,0.00
2013-12-22,79.2,70.4,65.5,68.9,65.1,58.6,100,85,61,30.14,30.04,26,6,30,0.00
2013-12-23,73.2,63.9,45.4,71.4,63.7,45.3,100,99,87,30.17,30.00,24,6,29,0.90
2013-12-24,45.5,40.8,32.2,45.5,29.2,5.2,100,65,32,30.43,30.13,20,3,22,0.15
2013-12-25,34.4,30.6,27.0,24.6,17.5,7.6,82,59,35,30.55,30.39,15,1,16,0.00
2013-12-26,46.8,36.4,29.3,32.4,27.2,17.9,97,72,40,30.39,30.23,10,0,11,0.00
2013-12-27,49.2,39.2,30.3,38.5,27.8,17.8,100,68,31,30.46,30.35,11,1,11,0.00
2013-12-28,58.3,45.5,34.1,33.7,28.5,19.2,84,55,23,30.39,30.16,15,2,16,0.00
2013-12-29,65.3,53.5,46.0,65.2,50.5,31.7,100,90,50,30.18,29.56,35,4,35,1.04
2013-12-30,53.9,46.7,41.8,46.1,40.8,32.1,100,81,56,30.16,29.89,17,1,17,0.00
2013-12-31,49.8,42.7,38.0,32.8,27.0,19.0,70,54,30,30.34,30.12,20,2,24,0.00
2014-1-1,52.3,42.4,33.8,38.7,31.5,24.8,85,66,51,30.42,30.15,10,0,13,0.00
2014-1-2,48.2,45.5,42.6,44.8,37.6,31.5,100,75,56,30.15,29.48,10,0,13,0.48